Location: Newark
(35.8833°N, 14.5000°E)
Time: 08:43:07
(UTC+00:00)

Altair - Pass Details

Date: 25 November 2019
Orbit: 1502 x 1682 km, 47.2° (Epoch: 05 December)

Event Time Altitude Azimuth Distance (km) Brightness Sun altitude
Rises 01:29:39 0° 260° (W) 4,665 - -51.8°
Reaches altitude 10° 01:32:50 10° 265° (W) 3,669 - -51.2°
Maximum altitude 01:41:45 52° 340° (NNW) 1,816 - -49.4°
Exits shadow 01:46:17 30° 40° (NE) 2,443 8.7 -48.5°
Drops below altitude 10° 01:50:39 10° 56° (NE) 3,665 9.9 -47.6°
Sets 01:53:51 0° 61° (ENE) 4,660 10.7 -47.0°
